Berlin, NH

5:25 PM EDT on June 25, 2017 (GMT -0400)
Berlin Municipal

Weather History for KBML - May, 2012

Change the Weather History Date:

Sunday, May 13, 2012

  Actual Average Record
Temperature  
Mean Temperature 60 °F -  
Max Temperature 75 °F 61 °F 75 °F (2011)
Min Temperature 48 °F 33 °F 23 °F (2005)
Degree Days  
Heating Degree Days 4    
Growing Degree Days 10 (Base 50)    
Moisture  
Dew Point 47 °F    
Average Humidity 65    
Maximum Humidity 93    
Minimum Humidity 38    
Precipitation  
Precipitation 0.02 in - - ()
Sea Level Pressure  
Sea Level Pressure 30.12 in    
Wind  
Wind Speed 2 mph (North)    
Max Wind Speed 13 mph    
Max Gust Speed -    
Visibility 10 miles    
Events      
Averages and records for this station are not official NWS values.
T = Trace of Precipitation, MM = Missing Value Source: NWS Daily Summary

Daily Weather History Graph

Daily Weather History Graph

Search for Another Location

Airport or City:

Trip Planner

Search our weather history database for the weather conditions in past years. The results will help you decide how hot, cold, wet, or windy it might be!

Date:

Astronomy

May. 13, 2012 Rise Set
Actual Time 5:18 AM EDT 8:04 PM EDT
Civil Twilight 4:45 AM EDT 8:37 PM EDT
Nautical Twilight 4:02 AM EDT 9:20 PM EDT
Astronomical Twilight 3:13 AM EDT 10:10 PM EDT
Moon 1:39 AM EDT (5/13) 1:06 PM EDT (5/13)
Length of Visible Light 15h 52m
Length of Day
14h 45m
Last Quarter, 42% of the Moon is Illuminated
May 13
Last Quarter
May 20
New
May 28
First Quarter
Jun 4
Full
Jun 11
Last Quarter

Hourly Weather History & Observations

Time (EDT) Temp. Dew Point Humidity Pressure Visibility Wind Dir Wind Speed Gust Speed Precip Events Conditions
12:52 AM 54.0 °F 46.0 °F 75% 30.09 in 10.0 mi Calm Calm - N/A   Overcast
1:52 AM 48.9 °F 45.0 °F 86% 30.10 in 10.0 mi Calm Calm - N/A   Overcast
2:52 AM 51.1 °F 46.0 °F 83% 30.10 in 10.0 mi Calm Calm - N/A   Overcast
3:52 AM 50.0 °F 46.0 °F 86% 30.11 in 10.0 mi North 3.5 mph - N/A   Overcast
4:52 AM 51.1 °F 46.0 °F 83% 30.11 in 10.0 mi Calm Calm - N/A   Overcast
5:52 AM 51.1 °F 46.0 °F 83% 30.12 in 10.0 mi Calm Calm - N/A   Overcast
7:52 AM 57.0 °F 41.0 °F 55% 30.13 in 10.0 mi Calm Calm - N/A   Mostly Cloudy
8:52 AM 59.0 °F 43.0 °F 55% 30.14 in 10.0 mi Calm Calm - N/A   Overcast
9:52 AM 62.1 °F 45.0 °F 53% 30.14 in 10.0 mi Calm Calm - N/A   Partly Cloudy
10:52 AM 66.0 °F 44.1 °F 45% 30.14 in 10.0 mi Calm Calm - N/A   Clear
11:52 AM 70.0 °F 43.0 °F 38% 30.12 in 10.0 mi Calm Calm - N/A   Scattered Clouds
12:52 PM 71.1 °F 45.0 °F 39% 30.10 in 10.0 mi NNE 4.6 mph - N/A   Overcast
1:52 PM 70.0 °F 46.0 °F 42% 30.10 in 10.0 mi NNW 8.1 mph - N/A   Overcast
2:52 PM 73.9 °F 48.0 °F 40% 30.09 in 10.0 mi Variable 6.9 mph - N/A   Mostly Cloudy
3:52 PM 71.1 °F 48.9 °F 45% 30.09 in 10.0 mi NNW 8.1 mph - N/A   Scattered Clouds
4:52 PM 68.0 °F 52.0 °F 56% 30.11 in 10.0 mi North 12.7 mph - N/A   Clear
5:52 PM 66.0 °F 51.1 °F 59% 30.13 in 10.0 mi North 8.1 mph - N/A   Mostly Cloudy
6:52 PM 64.0 °F 50.0 °F 60% 30.13 in 10.0 mi North 6.9 mph - N/A   Overcast
7:52 PM 62.1 °F 50.0 °F 65% 30.14 in 10.0 mi Calm Calm - N/A   Mostly Cloudy
8:52 PM 57.9 °F 50.0 °F 75% 30.16 in 10.0 mi Calm Calm - N/A   Mostly Cloudy
9:52 PM 57.0 °F 50.0 °F 77% 30.16 in 10.0 mi Calm Calm - N/A   Overcast
10:52 PM 54.0 °F 52.0 °F 93% 30.17 in 10.0 mi Calm Calm - 0.02 in   Mostly Cloudy
11:52 PM 54.0 °F 52.0 °F 93% 30.16 in 8.0 mi Calm Calm - N/A   Overcast